Location: Darlington Observatory
(36.4817°N, 105.8156°W)
Time: 11:49:48
(UTC-06:00)

MOS 1 - Visible Passes

Search period start: 06 July 2015 00:00
Search period end: 16 July 2015 00:00
Orbit: 878 x 893 km, 99.3° (Epoch: 05 July)

Date Brightness Start Highest point End Pass type
(mag) Time Alt. Az. Time Alt. Az. Time Alt. Az.
06 Jul 6.8 05:10:09 10° NE 05:13:54 19° E 05:17:52 10° SE visible
07 Jul 6.8 05:08:36 10° NE 05:12:13 18° E 05:16:04 10° SE visible
08 Jul 6.9 05:07:03 10° NE 05:10:32 17° E 05:14:17 10° SE visible
09 Jul 6.9 05:05:31 10° NE 05:08:51 17° E 05:12:29 10° SE visible
10 Jul 6.9 05:03:58 10° NE 05:07:10 16° E 05:10:40 10° SE visible
11 Jul 6.9 05:02:27 10° ENE 05:05:30 15° E 05:08:51 10° SE visible
12 Jul 7.0 05:00:56 10° ENE 05:03:49 15° E 05:07:01 10° SE visible
13 Jul 7.0 04:59:26 10° ENE 05:02:08 14° E 05:05:11 10° ESE visible
14 Jul 7.0 04:57:57 10° ENE 05:00:27 13° E 05:03:19 10° ESE visible
15 Jul 7.0 04:56:29 10° ENE 04:58:47 13° E 05:01:27 10° ESE visible
